Regional Weather Roundup
Issued by NWS

Home | Current Version | Previous Version | Graphics & Text | Print | Product List | Glossary On
Versions: 1 2 3 4 5 6 7 8 9 10 11 12 13 14 15 16 17 18 19 20 21 22 23 24 25 26 27 28 29 30 31 32 33 34 35 36 37 38 39 40 41 42 43 44 45 46 47 48 49 50
000
ASUS43 KLSX 230557
RWRMO

WEATHER SUMMARY FOR MISSOURI
NATIONAL WEATHER SERVICE SPRINGFIELD MO
100 AM CDT SUN APR 23 2017

NOTE: "FAIR" INDICATES FEW OR NO CLOUDS BELOW 12,000 FEET WITH NO
       SIGNIFICANT WEATHER AND/OR OBSTRUCTIONS TO VISIBILITY.
       CURRENT SKY AND/OR WEATHER CONDITIONS ARE NOT AVAILABLE FOR
       CHILLICOTHE AND FARMINGTON.

MOZ001>031-035>038-043-044-053-054-230700-
...NORTHERN AND WESTERN MISSOURI...

CITY           SKY/WX    TMP DP  RH WIND       PRES   REMARKS
KANSAS CTY INT CLEAR     48  30  49 NE3       30.18F
6HR MIN TEMP:  45; 6HR MAX TEMP:  61;

LEE`S SUMMIT   CLEAR     48  32  53 N5        30.18S
6HR MIN TEMP:  48; 6HR MAX TEMP:  60;

ST JOSEPH      CLEAR     40  35  83 CALM      30.20S
6HR MIN TEMP:  40; 6HR MAX TEMP:  62; 6HR PCP: TRACE;

CHILLICOTHE      N/A     42  35  76 CALM      30.19S
6HR MIN TEMP:  41; 6HR MAX TEMP:  63;


$$
MOZ066>068-077>081-088>096-101>105-230700-
...SOUTHWEST MISSOURI...

CITY           SKY/WX    TMP DP  RH WIND       PRES   REMARKS
SPRINGFIELD    CLOUDY    48  44  86 NW7       30.09S
6HR MIN TEMP:  47; 6HR MAX TEMP:  50;

JOPLIN         CLOUDY    46  45  96 NW5       30.14S
6HR MIN TEMP:  46; 6HR MAX TEMP:  50;


$$
MOZ032>034-039>042-045>050-055>058-069>072-230700-
...CENTRAL MISSOURI...

CITY           SKY/WX    TMP DP  RH WIND       PRES   REMARKS
COLUMBIA       NOT AVBL
JEFFERSON CITY CLEAR     52  35  52 N8        30.12S
6HR MIN TEMP:  52; 6HR MAX TEMP:  64;

ROLLA          CLEAR     45  37  73 NE6       30.08S
6HR MIN TEMP:  45; 6HR MAX TEMP:  54;


$$
MOZ051-052-059>065-230700-
...EAST CENTRAL MISSOURI...

CITY           SKY/WX    TMP DP  RH WIND       PRES   REMARKS
ST LOUIS INTL  CLEAR     50  35  56 N8        30.10S
6HR MIN TEMP:  47; 6HR MAX TEMP:  61;


$$
MOZ072>076-082>087-097>100-106>115-230700-
...SOUTH CENTRAL AND SOUTHEAST MISSOURI...

CITY           SKY/WX    TMP DP  RH WIND       PRES   REMARKS
CAPE GIRARDEAU LGT RAIN  50  45  83 N6        30.01S
6HR MIN TEMP:  50; 6HR MAX TEMP:  52; 6HR PCP:  0.15;

POPLAR BLUFF   CLOUDY    50  47  89 N8        30.01F
6HR MIN TEMP:  49; 6HR MAX TEMP:  52; 6HR PCP:  0.15;

WEST PLAINS    CLOUDY    49  41  74 N6        30.05S
6HR MIN TEMP:  48; 6HR MAX TEMP:  50; 6HR PCP: TRACE;


$$


USA.gov is the U.S. government's official web portal to all federal, state and local government web resources and services.